Date,TemperatureHighF,TemperatureAvgF,TemperatureLowF,DewpointHighF,DewpointAvgF,DewpointLowF,HumidityHigh,HumidityAvg,HumidityLow,PressureMaxIn,PressureMinIn,WindSpeedMaxMPH,WindSpeedAvgMPH,GustSpeedMaxMPH,PrecipitationSumIn
2013-2-1,33.0,24.3,14.0,14.0,6.0,-4.0,58,45,27,0.00,40.00,15,9,27,0.00
2013-2-2,53.0,41.2,28.0,29.0,22.8,14.0,58,48,33,0.00,40.00,11,8,18,0.00
2013-2-3,54.0,45.6,39.0,28.0,21.9,17.0,54,40,26,0.00,40.00,15,9,25,0.00
2013-2-4,49.0,44.1,41.0,46.0,34.8,20.0,100,74,38,0.00,40.00,11,7,17,0.04
2013-2-5,58.0,50.5,42.0,49.0,44.7,33.0,100,81,49,0.00,40.00,10,6,14,0.01
2013-2-6,54.0,48.8,45.0,46.0,36.8,27.0,100,65,46,0.00,40.00,13,10,22,0.01
2013-2-7,53.0,48.2,45.0,52.0,47.2,42.0,100,96,85,0.00,40.00,15,8,23,0.39
2013-2-8,53.0,41.7,33.0,45.0,33.4,27.0,100,76,36,0.00,40.00,15,9,25,0.21
2013-2-9,36.0,32.5,28.0,36.0,32.1,27.0,100,98,70,0.00,40.00,15,12,24,0.18
2013-2-10,57.0,48.4,36.0,54.0,37.3,25.0,100,72,35,0.00,40.00,15,12,25,1.13
2013-2-11,51.0,42.6,36.0,30.0,25.0,22.0,60,50,37,0.00,40.00,15,8,26,0.72
2013-2-12,45.0,38.6,32.0,36.0,28.4,22.0,100,70,45,0.00,40.00,12,7,26,0.11
2013-2-13,45.0,37.1,31.0,39.0,33.0,30.0,100,87,62,0.00,40.00,12,9,20,0.17
2013-2-14,58.0,47.7,40.0,34.0,29.6,22.0,66,50,37,0.00,40.00,14,8,22,0.03
2013-2-15,43.0,35.2,28.0,29.0,20.1,10.0,67,54,41,0.00,40.00,15,11,25,0.00
2013-2-16,36.0,30.0,24.0,21.0,13.3,7.0,87,51,29,0.00,40.00,12,8,22,0.00
2013-2-17,54.0,42.3,31.0,32.0,20.7,8.0,54,42,34,0.00,40.00,10,8,16,0.00
2013-2-18,54.0,46.4,36.0,54.0,40.3,29.0,100,81,54,0.00,40.00,18,12,36,0.20
2013-2-19,43.0,34.8,27.0,29.0,16.5,13.0,77,48,32,0.00,40.00,19,10,39,0.20
2013-2-20,34.0,28.6,25.0,29.0,19.9,9.0,100,74,43,0.00,40.00,14,8,24,0.03
2013-2-21,32.0,29.7,26.0,32.0,26.4,20.0,100,88,66,0.00,40.00,19,9,32,0.03
2013-2-22,37.0,29.6,23.0,35.0,28.3,22.0,100,95,84,0.00,40.00,5,1,8,0.61
2013-2-23,45.0,33.3,23.0,28.0,24.1,19.0,92,71,50,0.00,40.00,8,5,12,0.04
2013-2-24,50.0,41.0,33.0,32.0,28.8,23.0,82,62,48,0.00,40.00,16,11,25,0.01
2013-2-25,49.0,42.2,36.0,42.0,34.3,27.0,100,77,47,0.00,40.00,19,13,37,0.77
2013-2-26,36.0,32.1,30.0,36.0,32.1,30.0,100,100,95,0.00,40.00,13,10,27,0.22
2013-2-27,38.0,32.8,30.0,32.0,28.7,24.0,100,86,62,0.00,40.00,15,11,27,0.01
2013-2-28,41.0,32.0,26.0,27.0,24.4,22.0,100,75,53,0.00,40.00,15,11,24,0.00